Showing default

OPS 9845 (DMSP 5D-2 F6), 13736

Orbit data source: Space-Track

OPS 9845 (DMSP 5D-2 F6), 13736 is a payload satellite owned by USAF SD (US) in SSO that was launched on Tue, 21 Dec 1982 UTC via an ATLAS E launch vehicle from the Air Force Western Test Range (AFWTR). Payload-class satellites include a variety of spacecraft equipped with specific instruments for various scientific and technological missions. These include communications satellites like Starlink; space stations such as the ISS; scientific satellites like the Hubble; Earth observation satellites from companies like Planet Labs, Umbra, and HawkEye 360; GPS; miniature CubeSats for education and research; and military/defense satellites.

Loading next visibility...
Identifier
13736, 1982-118A
Orbit
SSO
Country
Flag of USUS
Related business
Manufacturer
RCA/East Windsor
Mission
Non-operational spacecraft
Bus & Motor
BLOCK 5D, STAR 37S
Mass
1,474 kg wet, 760 kg dry
Launch date (UTC)
1982-12-21 (44 years ago)
Launch vehicle
ATLAS E
Launch site
Air Force Western Test Range (AFWTR)
Object type
Payload
Rocket body
Debris
Shape & HBR
BOX + PAN, 1.1 m
Radar Cross Section
Large (>1 m²)

Expand to show TLE details & history
Last TLE update: 11 hours ago

TLE from 11 hours ago
0 OPS 9845 (DMSP 5D-2 F6)
1 13736U 82118A   26266.76889193  .00000097  00000-0  53969-4 0  9995
2 13736  98.5933  93.2119 0008302  41.8114 318.3701 14.30549762279109
Epoch: 2026-09-23T18:27Z
TLE epoch observation values (Epoch: 2026-09-23T18:27:12.262Z)
Latitude
-0.0001°
Longitude
173.79555°
Altitude
788.38 km
Speed
7.462 km/s
True Right ascension
06h 12m 50s
True Declination
0° 00' 00"
Sunlit
Object was in daylight at epoch
Visualization orbit readout
Latitude
Unknown
Longitude
Unknown
Altitude
Unknown
Speed
Unknown
Apparent Right ascension
Unknown
Apparent Declination
Unknown
Sunlit
N/A
Visualization observer readout
Local Sidereal Time
23:08:52
Azimuth
Unknown
Elevation
Unknown
Doppler factor
Unknown
Orbital elements
Apogee altitude
792.981 km
Perigee altitude
781.084 km
Semi-major axis
7,165.17 km
Eccentricity
0.00083
Inclination
98.5933°
RAAN
93.2119°
Arg. of periapsis
41.8114°
True anomaly
318.30685°
Mean anomaly
318.3701°
Eccentric anomaly
318.33848°
Mean motion
3.57852 °/min
Orbital period
100.6 mins
BSTAR
0.000053969
Loading maneuver chart data...
Computing Atmospheric mass density...
Loading historical data...
Loading historical data...
Loading historical data...
Loading historical data...
Loading historical data...
Loading historical data...
Loading historical data...

Documentation

Showing up to 5 results
|